�������l�o���
Date,Time,MP-1(��Sv/h),MP-2(��Sv/h),MP-3(��Sv/h),MP-4(��Sv/h),MP-5(��Sv/h),MP-6(��Sv/h),MP-7(��Sv/h),MP-8(��Sv/h),����,����(m/s),���J
2020/10/23,00:00,0.660,0.947,0.599,1.156,0.834,0.384,0.666,0.628,��쐼,1.7,�L
2020/10/23,00:10,0.660,0.945,0.600,1.157,0.836,0.384,0.667,0.630,�쐼,1.4,��
2020/10/23,00:20,0.663,0.947,0.599,1.158,0.834,0.384,0.668,0.630,�쐼,1.1,��
2020/10/23,00:30,0.662,0.947,0.599,1.159,0.836,0.384,0.667,0.630,�쐼,0.8,��
2020/10/23,00:40,0.662,0.947,0.601,1.156,0.836,0.385,0.667,0.630,���쐼,1.1,�L
2020/10/23,00:50,0.660,0.948,0.600,1.157,0.836,0.385,0.667,0.632,���쐼,0.6,�L
2020/10/23,01:00,0.662,0.945,0.598,1.158,0.832,0.384,0.665,0.630,���k��,0.6,�L
2020/10/23,01:10,0.660,0.940,0.598,1.154,0.832,0.384,0.664,0.628,�k�k��,0.9,�L
2020/10/23,01:20,0.660,0.938,0.598,1.154,0.830,0.384,0.662,0.629,�k,1.5,�L
2020/10/23,01:30,0.660,0.935,0.596,1.149,0.827,0.385,0.663,0.628,�k,1.7,�L
2020/10/23,01:40,0.656,0.934,0.597,1.149,0.824,0.385,0.663,0.626,�k�k��,2.6,�L
2020/10/23,01:50,0.655,0.931,0.595,1.148,0.822,0.386,0.660,0.625,�k��,2.6,�L
2020/10/23,02:00,0.655,0.925,0.595,1.146,0.820,0.384,0.661,0.624,���k��,3.5,�L
2020/10/23,02:10,0.656,0.925,0.594,1.145,0.813,0.383,0.658,0.623,�k��,3.2,�L
2020/10/23,02:20,0.652,0.922,0.593,1.143,0.814,0.383,0.660,0.624,�k��,1.4,�L
2020/10/23,02:30,0.652,0.922,0.592,1.141,0.814,0.384,0.659,0.624,�쓌,0.9,�L
2020/10/23,02:40,0.652,0.919,0.591,1.137,0.812,0.384,0.661,0.624,�쓌,2.0,�L
2020/10/23,02:50,0.649,0.921,0.592,1.138,0.811,0.383,0.658,0.622,�쓌,2.2,�L
2020/10/23,03:00,0.651,0.915,0.590,1.137,0.811,0.382,0.658,0.622,�쓌,2.6,�L
2020/10/23,03:10,0.649,0.919,0.591,1.136,0.812,0.381,0.659,0.622,�쓌,1.7,�L
2020/10/23,03:20,0.649,0.919,0.589,1.135,0.811,0.382,0.657,0.624,��쓌,1.9,�L
2020/10/23,03:30,0.651,0.919,0.587,1.133,0.812,0.382,0.656,0.622,���쓌,0.6,�L
2020/10/23,03:40,0.647,0.921,0.589,1.135,0.812,0.381,0.659,0.622,���쓌,1.4,�L
2020/10/23,03:50,0.650,0.921,0.590,1.133,0.812,0.380,0.658,0.622,���쓌,2.9,�L
2020/10/23,04:00,0.648,0.921,0.587,1.133,0.810,0.381,0.656,0.622,���쓌,2.5,�L
2020/10/23,04:10,0.648,0.918,0.588,1.129,0.811,0.382,0.657,0.624,���쓌,2.0,�L
2020/10/23,04:20,0.647,0.918,0.588,1.133,0.809,0.382,0.657,0.622,���쓌,1.7,�L
2020/10/23,04:30,0.649,0.918,0.590,1.130,0.810,0.380,0.657,0.622,���쓌,1.2,�L
2020/10/23,04:40,0.647,0.915,0.586,1.131,0.809,0.380,0.656,0.623,��,0.9,�L
2020/10/23,04:50,0.646,0.912,0.586,1.127,0.807,0.380,0.656,0.622,���k��,0.6,�L
2020/10/23,05:00,0.642,0.909,0.583,1.122,0.803,0.381,0.654,0.620,�k,1.2,�L
2020/10/23,05:10,0.641,0.906,0.584,1.118,0.799,0.379,0.653,0.618,���쓌,0.9,�L
2020/10/23,05:20,0.642,0.907,0.585,1.115,0.799,0.379,0.653,0.617,�쓌,1.1,�L
2020/10/23,05:30,0.641,0.905,0.584,1.115,0.798,0.379,0.652,0.618,���쓌,1.2,�L
2020/10/23,05:40,0.639,0.905,0.585,1.112,0.797,0.376,0.651,0.617,�쓌,1.2,�L
2020/10/23,05:50,0.640,0.905,0.584,1.111,0.798,0.377,0.653,0.617,���쓌,1.5,�L
2020/10/23,06:00,0.640,0.901,0.582,1.111,0.798,0.376,0.650,0.617,���쓌,1.5,�L
2020/10/23,06:10,0.640,0.903,0.581,1.110,0.797,0.379,0.652,0.616,���쓌,2.3,�L
2020/10/23,06:20,0.639,0.905,0.583,1.111,0.797,0.378,0.652,0.617,���쓌,2.5,�L
2020/10/23,06:30,0.639,0.902,0.583,1.111,0.797,0.378,0.653,0.618,���쓌,2.6,�L
2020/10/23,06:40,0.641,0.903,0.582,1.109,0.797,0.376,0.651,0.615,���쓌,1.9,�L
2020/10/23,06:50,0.640,0.904,0.582,1.111,0.797,0.377,0.652,0.618,���쓌,2.0,�L
2020/10/23,07:00,0.640,0.906,0.582,1.109,0.799,0.376,0.651,0.616,��,1.7,�L
2020/10/23,07:10,0.640,0.907,0.582,1.110,0.798,0.376,0.651,0.618,��,2.0,�L
2020/10/23,07:20,0.640,0.907,0.581,1.109,0.801,0.377,0.654,0.620,��,2.5,�L
2020/10/23,07:30,0.640,0.906,0.580,1.109,0.799,0.377,0.653,0.616,��,2.8,�L
2020/10/23,07:40,0.640,0.903,0.581,1.118,0.801,0.378,0.653,0.618,��,1.9,�L
2020/10/23,07:50,0.640,0.905,0.581,1.111,0.801,0.378,0.653,0.618,��,1.5,�L
2020/10/23,08:00,0.641,0.906,0.582,1.112,0.798,0.378,0.653,0.620,��,1.1,�L
2020/10/23,08:10,0.640,0.905,0.582,1.109,0.800,0.378,0.652,0.617,��,0.8,�L
2020/10/23,08:20,0.641,0.903,0.583,1.111,0.800,0.378,0.653,0.619,���쓌,1.4,�L
2020/10/23,08:30,0.642,0.905,0.581,1.111,0.800,0.376,0.653,0.617,�쓌,0.9,�L
2020/10/23,08:40,0.642,0.904,0.581,1.111,0.800,0.377,0.652,0.619,-,CALM,�L
2020/10/23,08:50,0.640,0.903,0.581,1.111,0.800,0.378,0.653,0.617,��,0.8,��
2020/10/23,09:00,0.640,0.905,0.580,1.111,0.800,0.380,0.652,0.617,�쐼,0.9,�L
2020/10/23,09:10,0.642,0.907,0.582,1.111,0.801,0.377,0.654,0.617,��,1.2,�L
2020/10/23,09:20,0.640,0.902,0.583,1.110,0.801,0.378,0.652,0.618,��,1.7,�L
2020/10/23,09:30,0.641,0.906,0.582,1.110,0.802,0.377,0.653,0.618,���k��,2.0,�L
2020/10/23,09:40,0.641,0.901,0.583,1.112,0.800,0.378,0.652,0.617,���k��,1.7,�L
2020/10/23,09:50,0.642,0.903,0.581,1.109,0.803,0.377,0.652,0.618,�k��,1.2,��
2020/10/23,10:00,0.641,0.906,0.581,1.112,0.788,0.378,0.654,0.618,�k�k��,0.6,��
2020/10/23,10:10,0.643,0.906,0.582,1.110,0.784,0.378,0.654,0.618,�k��,1.2,�L
2020/10/23,10:20,0.643,0.905,0.581,1.112,-,0.377,0.653,0.619,�k��,1.2,��
2020/10/23,10:30,0.644,0.904,0.582,1.111,-,0.377,0.654,0.618,���k��,0.9,��
2020/10/23,10:40,0.643,0.905,0.582,1.111,-,0.376,0.653,0.620,-,CALM,��
2020/10/23,10:50,0.642,0.902,0.582,1.111,-,0.378,0.655,0.618,-,CALM,�L
2020/10/23,11:00,0.641,0.903,0.584,1.110,-,0.377,0.653,0.619,-,CALM,�L
2020/10/23,11:10,0.642,0.905,0.583,1.111,-,0.378,0.656,0.619,�k�k��,0.6,�L
2020/10/23,11:20,0.641,0.902,0.584,1.114,-,0.378,0.653,0.618,���쓌,0.9,�L
2020/10/23,11:30,0.641,0.903,0.583,1.111,-,0.378,0.653,0.616,�쓌,0.9,�L
2020/10/23,11:40,0.643,0.900,0.583,1.109,-,0.377,0.653,0.617,���쓌,1.5,�L
2020/10/23,11:50,0.640,0.903,0.582,1.111,-,0.378,0.652,0.618,���쓌,1.7,�L
2020/10/23,12:00,0.641,0.905,0.582,1.111,-,0.378,0.653,0.617,���쓌,2.0,�L
2020/10/23,12:10,0.641,0.903,0.581,1.111,0.796,0.378,0.653,0.619,�쓌,1.7,�L
2020/10/23,12:20,0.639,0.901,0.582,1.110,0.796,0.378,0.651,0.616,�쓌,1.7,�L
2020/10/23,12:30,0.640,0.900,0.582,1.110,0.796,0.378,0.652,0.616,�쓌,1.5,�L
2020/10/23,12:40,0.639,0.899,0.581,1.108,0.792,0.379,0.651,0.617,��쓌,0.9,�L
2020/10/23,12:50,0.640,0.901,0.580,1.107,0.794,0.378,0.652,0.614,�쓌,2.3,�L
2020/10/23,13:00,0.640,0.899,0.580,1.106,0.794,0.377,0.650,0.616,�쓌,3.5,�L
2020/10/23,13:10,0.638,0.896,0.581,1.106,0.793,0.378,0.651,0.616,�쓌,4.4,�L
2020/10/23,13:20,0.637,0.893,0.580,1.105,0.790,0.376,0.651,0.615,��쓌,4.5,�L
2020/10/23,13:30,0.637,0.892,0.578,1.101,0.790,0.377,0.651,0.615,��쓌,4.4,�L
2020/10/23,13:40,0.635,0.893,0.577,1.100,0.791,0.377,0.649,0.615,��쓌,4.3,�L
2020/10/23,13:50,0.636,0.895,0.576,1.100,0.792,0.375,0.650,0.615,��,3.5,�L
2020/10/23,14:00,0.634,0.891,0.576,1.100,0.789,0.376,0.648,0.614,��,3.1,�L
2020/10/23,14:10,0.635,0.892,0.577,1.099,0.788,0.375,0.649,0.614,��,3.6,�L
2020/10/23,14:20,0.636,0.892,0.577,1.097,0.788,0.377,0.647,0.614,��,4.2,�L
2020/10/23,14:30,0.636,0.892,0.578,1.097,0.792,0.375,0.650,0.614,��쓌,5.1,�L
2020/10/23,14:40,0.636,0.894,0.577,1.099,0.790,0.375,0.649,0.614,��,4.6,�L
2020/10/23,14:50,0.636,0.896,0.577,1.096,0.791,0.376,0.649,0.614,��,4.5,�L
2020/10/23,15:00,0.637,0.899,0.579,1.100,0.792,0.377,0.650,0.614,��,5.4,�L
2020/10/23,15:10,0.639,0.896,0.577,1.098,0.792,0.376,0.650,0.615,��,4.3,�L
2020/10/23,15:20,0.639,0.900,0.581,1.099,0.789,0.376,0.650,0.615,��,3.4,�L
2020/10/23,15:30,0.640,0.902,0.580,1.101,0.792,0.376,0.650,0.615,��쐼,2.3,�L
2020/10/23,15:40,0.641,0.901,0.579,1.099,0.792,0.376,0.652,0.615,��쐼,2.2,�L
2020/10/23,15:50,0.640,0.903,0.579,1.099,0.792,0.375,0.650,0.616,�쐼,2.5,�L
2020/10/23,16:00,0.643,0.904,0.578,1.100,0.794,0.377,0.650,0.617,���쐼,2.6,�L
2020/10/23,16:10,0.639,0.904,0.580,1.101,0.792,0.376,0.651,0.618,��,3.2,�L
2020/10/23,16:20,0.640,0.903,0.581,1.102,0.792,0.377,0.649,0.617,��,4.5,�L
2020/10/23,16:30,0.639,0.906,0.581,1.103,0.796,0.376,0.650,0.618,���k��,4.5,�L
2020/10/23,16:40,0.640,0.905,0.580,1.104,0.798,0.378,0.649,0.616,���k��,7.0,�L
2020/10/23,16:50,0.639,0.905,0.579,1.103,0.796,0.378,0.650,0.618,�k��,6.0,�L
2020/10/23,17:00,0.640,0.905,0.580,1.104,0.796,0.378,0.651,0.618,�k��,5.8,�L
2020/10/23,17:10,0.639,0.908,0.578,1.104,0.798,0.379,0.650,0.617,�k��,6.0,�L
2020/10/23,17:20,0.637,0.907,0.581,1.103,0.798,0.379,0.650,0.618,�k��,5.1,�L
2020/10/23,17:30,0.639,0.906,0.579,1.106,0.799,0.377,0.652,0.618,�k��,5.2,�L
2020/10/23,17:40,0.638,0.906,0.581,1.105,0.796,0.377,0.650,0.618,�k��,5.4,�L
2020/10/23,17:50,0.638,0.905,0.580,1.108,0.796,0.377,0.652,0.617,�k��,5.0,�L
2020/10/23,18:00,0.638,0.903,0.579,1.105,0.797,0.377,0.651,0.618,���k��,6.0,�L
2020/10/23,18:10,0.640,0.905,0.579,1.107,0.796,0.378,0.649,0.618,��,5.5,�L
2020/10/23,18:20,0.637,0.903,0.580,1.104,0.796,0.380,0.650,0.617,���k��,5.7,��
2020/10/23,18:30,0.639,0.906,0.580,1.107,0.794,0.379,0.652,0.618,���k��,5.5,�L
2020/10/23,18:40,0.640,0.903,0.579,1.106,0.797,0.379,0.651,0.619,���k��,7.1,�L
2020/10/23,18:50,0.638,0.904,0.578,1.105,0.796,0.378,0.652,0.619,�k��,7.5,��
2020/10/23,19:00,0.638,0.905,0.580,1.107,0.798,0.378,0.652,0.619,�k��,6.8,��
2020/10/23,19:10,0.640,0.905,0.579,1.106,0.797,0.379,0.653,0.619,�k��,3.4,��
2020/10/23,19:20,0.638,0.906,0.582,1.107,0.797,0.377,0.652,0.619,�k�k��,3.2,��
2020/10/23,19:30,0.638,0.906,0.580,1.105,0.798,0.377,0.651,0.621,�k�k��,4.1,��
2020/10/23,19:40,0.638,0.905,0.579,1.108,0.796,0.378,0.653,0.619,�k�k��,4.7,��
2020/10/23,19:50,0.639,0.906,0.580,1.107,0.796,0.379,0.653,0.620,�k�k��,3.5,��
2020/10/23,20:00,0.637,0.903,0.582,1.109,0.798,0.379,0.652,0.620,�k,2.9,��
2020/10/23,20:10,0.637,0.906,0.581,1.107,0.798,0.379,0.653,0.622,�k,3.1,��
2020/10/23,20:20,0.639,0.906,0.579,1.108,0.798,0.379,0.654,0.620,�k,4.7,��
2020/10/23,20:30,0.638,0.904,0.581,1.110,0.799,0.378,0.655,0.620,�k,3.2,��
2020/10/23,20:40,0.638,0.905,0.581,1.108,0.799,0.378,0.654,0.619,�k�k��,4.3,��
2020/10/23,20:50,0.638,0.908,0.581,1.108,0.798,0.380,0.655,0.620,�k�k��,5.1,��
2020/10/23,21:00,0.639,0.906,0.580,1.108,0.800,0.378,0.654,0.619,�k�k��,5.3,��
2020/10/23,21:10,0.637,0.904,0.581,1.110,0.799,0.380,0.652,0.620,�k�k��,4.4,��
2020/10/23,21:20,0.640,0.906,0.580,1.109,0.799,0.378,0.655,0.622,�k�k��,5.2,��
2020/10/23,21:30,0.639,0.906,0.581,1.111,0.800,0.378,0.657,0.622,�k�k��,4.9,��
2020/10/23,21:40,0.639,0.908,0.580,1.109,0.799,0.381,0.654,0.621,�k�k��,4.8,��
2020/10/23,21:50,0.640,0.906,0.582,1.109,0.799,0.379,0.655,0.621,�k�k��,5.1,��
2020/10/23,22:00,0.640,0.907,0.581,1.110,0.803,0.380,0.656,0.621,�k,3.9,��
2020/10/23,22:10,0.640,0.908,0.581,1.109,0.800,0.379,0.654,0.623,�k�k��,3.7,��
2020/10/23,22:20,0.641,0.908,0.583,1.112,0.801,0.378,0.655,0.621,�k�k��,5.2,��
2020/10/23,22:30,0.640,0.908,0.581,1.111,0.799,0.379,0.654,0.621,�k�k��,4.8,��
2020/10/23,22:40,0.640,0.907,0.581,1.111,0.799,0.379,0.655,0.622,�k�k��,3.3,��
2020/10/23,22:50,0.639,0.908,0.582,1.109,0.802,0.379,0.655,0.621,�k��,2.3,��
2020/10/23,23:00,0.639,0.910,0.582,1.111,0.801,0.379,0.655,0.622,�k�k��,3.9,��
2020/10/23,23:10,0.640,0.908,0.582,1.110,0.801,0.380,0.655,0.624,�k,5.7,��
2020/10/23,23:20,0.643,0.907,0.580,1.111,0.803,0.379,0.654,0.622,�k,5.6,��
2020/10/23,23:30,0.640,0.909,0.581,1.112,0.801,0.379,0.656,0.621,�k�k��,5.6,��
2020/10/23,23:40,0.639,0.911,0.583,1.111,0.802,0.379,0.656,0.623,�k�k��,4.8,��
2020/10/23,23:50,0.641,0.910,0.583,1.112,0.803,0.380,0.654,0.622,�k�k��,6.8,��
